TimeEST,TemperatureF,Dew PointF,Humidity,Sea Level PressureIn,VisibilityMPH,Wind Direction,Wind SpeedMPH,Gust SpeedMPH,PrecipitationIn,Events,Conditions,WindDirDegrees,DateUTC
12:15 AM,63.5,45.9,53,30.08,10.0,SSW,9.2,-,N/A,,Clear,200,2012-12-05 05:15:00
12:35 AM,62.8,46.0,54,30.07,10.0,SSW,11.5,-,N/A,,Scattered Clouds,200,2012-12-05 05:35:00
12:55 AM,63.0,45.9,54,30.07,10.0,SSW,9.2,-,N/A,,Mostly Cloudy,200,2012-12-05 05:55:00
1:15 AM,62.1,46.0,56,30.07,10.0,SSW,8.1,-,N/A,,Scattered Clouds,200,2012-12-05 06:15:00
1:35 AM,61.7,46.4,57,30.06,10.0,SSW,8.1,-,N/A,,Clear,200,2012-12-05 06:35:00
1:55 AM,60.8,46.0,58,30.06,10.0,South,4.6,-,N/A,,Clear,180,2012-12-05 06:55:00
2:15 AM,59.7,46.4,61,30.07,10.0,South,5.8,-,N/A,,Clear,180,2012-12-05 07:15:00
2:35 AM,59.4,46.4,62,30.07,10.0,South,4.6,-,N/A,,Scattered Clouds,180,2012-12-05 07:35:00
2:55 AM,59.2,46.6,63,30.07,10.0,South,4.6,-,N/A,,Mostly Cloudy,190,2012-12-05 07:55:00
3:15 AM,58.3,46.4,65,30.07,10.0,South,4.6,-,N/A,,Mostly Cloudy,180,2012-12-05 08:15:00
3:35 AM,59.4,46.6,63,30.07,10.0,South,3.5,-,N/A,,Mostly Cloudy,190,2012-12-05 08:35:00
3:55 AM,59.0,46.9,64,30.07,10.0,South,3.5,-,N/A,,Overcast,170,2012-12-05 08:55:00
4:15 AM,59.5,47.3,64,30.08,10.0,North,3.5,-,N/A,,Overcast,360,2012-12-05 09:15:00
4:35 AM,59.5,47.7,65,30.08,10.0,North,3.5,-,N/A,,Overcast,360,2012-12-05 09:35:00
4:55 AM,59.5,48.2,66,30.09,10.0,North,6.9,-,N/A,,Overcast,10,2012-12-05 09:55:00
5:15 AM,58.6,49.3,71,30.09,10.0,North,11.5,-,N/A,,Overcast,360,2012-12-05 10:15:00
5:35 AM,57.6,48.2,71,30.11,10.0,NNE,10.4,-,N/A,Rain,Light Rain,20,2012-12-05 10:35:00
5:55 AM,55.6,47.7,75,30.12,10.0,NNE,6.9,-,N/A,,Drizzle,20,2012-12-05 10:55:00
6:15 AM,54.0,47.5,79,30.13,10.0,NE,4.6,-,N/A,,Overcast,40,2012-12-05 11:15:00
6:35 AM,54.7,46.8,75,30.14,10.0,East,4.6,-,N/A,,Overcast,80,2012-12-05 11:35:00
6:55 AM,54.5,46.2,74,30.16,10.0,Calm,Calm,-,N/A,,Overcast,0,2012-12-05 11:55:00
7:15 AM,55.0,45.9,71,30.17,10.0,North,3.5,-,N/A,,Overcast,360,2012-12-05 12:15:00
7:35 AM,54.5,43.2,66,30.18,10.0,North,3.5,-,N/A,,Overcast,360,2012-12-05 12:35:00
7:55 AM,54.1,37.6,54,30.18,10.0,North,5.8,-,N/A,,Overcast,10,2012-12-05 12:55:00
9:35 AM,53.6,33.3,46,30.21,10.0,NNE,3.5,-,N/A,,Clear,20,2012-12-05 14:35:00
9:55 AM,53.8,33.6,46,30.21,10.0,North,3.5,-,N/A,,Clear,360,2012-12-05 14:55:00
10:15 AM,54.0,33.1,45,30.21,10.0,Calm,Calm,-,N/A,,Clear,0,2012-12-05 15:15:00
10:35 AM,54.1,32.0,43,30.22,10.0,Calm,Calm,-,N/A,,Clear,0,2012-12-05 15:35:00
10:55 AM,54.3,32.0,43,30.22,10.0,Calm,Calm,-,N/A,,Clear,0,2012-12-05 15:55:00
11:15 AM,54.1,30.7,41,30.22,10.0,West,6.9,-,N/A,,Clear,280,2012-12-05 16:15:00
11:35 AM,54.9,26.8,34,30.21,10.0,West,3.5,-,N/A,,Clear,270,2012-12-05 16:35:00
11:55 AM,56.8,26.2,31,30.20,10.0,WSW,5.8,-,N/A,,Clear,250,2012-12-05 16:55:00
12:15 PM,56.7,27.0,32,30.19,10.0,WSW,6.9,-,N/A,,Clear,240,2012-12-05 17:15:00
12:35 PM,57.7,26.4,30,30.18,10.0,Calm,Calm,-,N/A,,Clear,0,2012-12-05 17:35:00
12:55 PM,59.4,25.2,27,30.17,10.0,West,8.1,-,N/A,,Clear,280,2012-12-05 17:55:00
1:15 PM,60.1,23.9,25,30.17,10.0,Calm,Calm,-,N/A,,Clear,0,2012-12-05 18:15:00
1:35 PM,60.4,23.4,24,30.16,10.0,NW,8.1,-,N/A,,Clear,320,2012-12-05 18:35:00
1:55 PM,60.8,22.1,23,30.16,10.0,NW,6.9,-,N/A,,Clear,320,2012-12-05 18:55:00
2:15 PM,61.3,21.9,22,30.16,10.0,NNW,9.2,-,N/A,,Clear,340,2012-12-05 19:15:00
2:35 PM,61.0,19.2,20,30.15,10.0,NW,12.7,17.3,N/A,,Clear,310,2012-12-05 19:35:00
2:55 PM,61.0,18.7,19,30.15,10.0,NW,12.7,-,N/A,,Clear,310,2012-12-05 19:55:00
3:15 PM,61.0,19.0,20,30.16,10.0,WNW,11.5,16.1,N/A,,Clear,290,2012-12-05 20:15:00
3:35 PM,59.9,19.2,21,30.16,10.0,NW,9.2,-,N/A,,Clear,310,2012-12-05 20:35:00
3:55 PM,59.5,19.2,21,30.16,10.0,NW,8.1,-,N/A,,Clear,310,2012-12-05 20:55:00
4:15 PM,58.1,20.7,23,30.17,10.0,NW,5.8,-,N/A,,Clear,320,2012-12-05 21:15:00
4:35 PM,56.5,21.7,26,30.17,10.0,NW,4.6,-,N/A,,Clear,320,2012-12-05 21:35:00
4:55 PM,54.9,21.0,27,30.17,10.0,North,5.8,-,N/A,,Clear,360,2012-12-05 21:55:00
5:15 PM,53.6,20.3,27,30.19,10.0,North,4.6,-,N/A,,Clear,360,2012-12-05 22:15:00
5:35 PM,52.5,21.2,29,30.20,10.0,North,8.1,-,N/A,,Clear,350,2012-12-05 22:35:00
5:55 PM,50.5,22.1,33,30.20,10.0,NNW,8.1,-,N/A,,Clear,330,2012-12-05 22:55:00
6:15 PM,48.2,22.5,36,30.22,10.0,East,4.6,-,N/A,,Clear,80,2012-12-05 23:15:00
6:35 PM,48.4,22.1,36,30.23,10.0,NNE,4.6,-,N/A,,Clear,20,2012-12-05 23:35:00
6:55 PM,46.4,23.9,41,30.23,10.0,NNE,3.5,-,N/A,,Clear,20,2012-12-05 23:55:00
7:15 PM,48.2,24.8,40,30.23,10.0,North,6.9,-,N/A,,Clear,350,2012-12-06 00:15:00
7:35 PM,48.2,25.9,42,30.23,10.0,North,10.4,-,N/A,,Clear,350,2012-12-06 00:35:00
7:55 PM,45.3,27.0,49,30.24,10.0,Calm,Calm,-,N/A,,Clear,0,2012-12-06 00:55:00
8:15 PM,43.0,27.0,53,30.25,10.0,ENE,3.5,-,N/A,,Clear,60,2012-12-06 01:15:00
8:35 PM,44.6,27.3,51,30.26,10.0,North,3.5,-,N/A,,Clear,360,2012-12-06 01:35:00
8:55 PM,41.2,27.3,58,30.27,10.0,East,4.6,-,N/A,,Clear,80,2012-12-06 01:55:00
9:15 PM,38.8,27.1,63,30.26,10.0,Calm,Calm,-,N/A,,Clear,0,2012-12-06 02:15:00
9:35 PM,39.9,28.2,63,30.27,10.0,NNW,3.5,-,N/A,,Clear,340,2012-12-06 02:35:00
9:55 PM,42.3,28.8,59,30.27,10.0,North,4.6,-,N/A,,Clear,360,2012-12-06 02:55:00
10:15 PM,41.5,29.7,63,30.27,10.0,NNW,6.9,-,N/A,,Clear,340,2012-12-06 03:15:00
10:35 PM,38.8,29.1,68,30.27,10.0,Calm,Calm,-,N/A,,Clear,0,2012-12-06 03:35:00
10:55 PM,40.5,30.2,67,30.26,10.0,North,3.5,-,N/A,,Clear,360,2012-12-06 03:55:00
11:15 PM,38.7,29.1,69,30.27,10.0,Calm,Calm,-,N/A,,Clear,0,2012-12-06 04:15:00
11:35 PM,35.4,28.2,75,30.28,10.0,Calm,Calm,-,N/A,,Clear,0,2012-12-06 04:35:00
11:55 PM,35.4,29.1,78,30.29,10.0,Calm,Calm,-,N/A,,Clear,0,2012-12-06 04:55:00